Location: Lavino di Mezzo
(44.5333°N, 11.2333°E)
Time: 17:18:47
(UTC+00:00)

Daily predictions for brighter satellites

Satellite Brightness Start Highest point End
(mag) Time Altitude Azimuth Time Altitude Azimuth Time Altitude Azimuth
NOSS 2-1 (D) 4.2 16:47:31 10° NW 16:52:00 84° SW 16:58:26 10° SSE
Cosmos 2322 Rocket 3.1 16:49:24 10° SSE 16:54:03 27° ESE 16:58:42 10° NE
COSMO-SKYMED 1 3.1 16:52:28 10° NNE 16:56:32 37° E 17:00:34 10° SSE
COSMOS 2455 3.6 16:50:54 10° SW 16:56:46 54° NW 17:02:42 10° NNE
USA 290 2.9 16:54:29 10° SSW 16:57:39 56° WNW 17:00:50 10° NNE
CZ-4B R/B 2.9 16:55:01 10° SSE 16:59:05 61° ENE 17:02:57 10° N
Meteor 2-1 Rocket 4.3 16:57:38 10° N 17:03:21 56° ENE 17:08:52 10° SSE
ARGOS 4.2 16:58:47 10° S 17:03:58 51° W 17:09:13 10° NNW
Cosmos 1825 3.5 17:01:33 10° SE 17:04:16 20° E 17:07:00 10° NE
SL-4 R/B 3.0 17:01:29 10° WNW 17:04:32 28° N 17:07:44 10° NE
Cosmos 1655 Rocket 4.0 16:59:32 10° N 17:05:49 78° E 17:12:02 10° SSE
SL-16 R/B 2.4 17:02:12 10° S 17:07:39 51° ESE 17:13:09 10° NE
Cosmos 1544 Rocket 4.4 17:07:12 10° NNW 17:11:24 53° W 17:15:37 10° S
BlueWalker 3 3.5 17:09:40 10° WNW 17:13:00 26° NNW 17:16:20 10° NE
Cosmos 1954 Rocket 4.4 17:08:24 10° S 17:13:22 44° ESE 17:18:19 10° NNE
Cosmos 1726 Rocket 4.4 17:10:37 10° NNE 17:14:20 28° ENE 17:18:02 10° SE
CZ-4 R/B 4.5 17:12:02 10° SSE 17:16:02 55° ENE 17:20:04 10° N
ADEOS 4.1 17:11:38 10° S 17:16:47 64° WSW 17:21:59 10° NNW
Cosmos 1340 Rocket 3.1 17:14:18 10° SSW 17:18:09 69° WNW 17:22:04 10° N
Cosmos 1980 Rocket 3.6 17:15:59 10° WSW 17:21:10 36° NW 17:26:25 10° NNE
USA 215 3.6 17:14:55 10° SE 17:21:26 70° SW 17:28:00 10° NW
PAYLOAD B 4.5 17:16:18 10° SE 17:21:32 46° ENE 17:26:46 10° N
Cosmos 2266 Rocket 4.4 17:15:46 10° NNW 17:22:01 70° W 17:28:08 10° S
Okean O Rocket 2.9 17:19:31 10° ESE 17:22:43 20° ENE 17:25:56 10° NNE
Cosmos 1763 Rocket 3.6 17:19:22 10° NNW 17:24:27 51° ENE 17:29:25 10° SE
ATLAS CENTAUR R/B 3.1 17:20:51 10° WSW 17:25:07 33° NW 17:29:16 10° NNE
Radarsat Rocket 4.3 17:20:02 10° SSE 17:26:00 77° WSW 17:32:39 10° NNW
ATLAS 2AS CENTAUR R/B 2.7 17:20:55 10° NNW 17:27:56 66° NE 17:34:31 10° SE
SL-08 ROCKET BODY 4.3 17:22:17 10° N 17:28:10 73° E 17:33:59 10° SSE
Cosmos 1340 4.1 17:26:05 10° NNE 17:28:24 17° ENE 17:28:24 17° ENE
Cosmos 2237 4.2 17:27:34 10° SSW 17:33:12 66° ESE 17:38:54 10° NNE
Cosmos 2263 Rocket 3.8 17:30:33 10° NW 17:35:39 37° WSW 17:40:42 10° S
Cosmos 1553 Rocket 4.3 17:30:14 10° SSE 17:35:50 40° E 17:41:31 10° NNE
Cosmos 841 Rocket 4.4 17:31:22 10° N 17:35:52 27° ENE 17:38:59 16° ESE
Cosmos 1869 4.0 17:36:22 10° NNE 17:39:50 30° ENE 17:43:18 10° SE
Cosmos 1461 3.1 17:37:28 10° SSW 17:41:33 52° ESE 17:44:28 19° NE
Cosmos 540 Rocket 3.7 17:36:39 10° N 17:41:37 47° ENE 17:46:33 10° SE
Lacrosse 5 1.8 17:38:45 10° SW 17:43:50 79° SE 17:47:31 19° NE
SKYMED 2 3.9 17:40:24 10° N 17:44:44 67° WNW 17:49:01 10° SSW
Genesis I 4.1 17:41:34 10° S 17:45:04 31° ESE 17:46:07 27° E
Gblst 52 Del rocket 4.2 17:39:56 10° WSW 17:45:36 73° NNW 17:49:26 20° NE
MINOTAUR 4 R/B 4.3 17:46:07 21° NE 17:48:00 41° E 17:51:16 10° S
Cosmos 2058 Rocket 3.5 17:45:04 10° N 17:49:09 36° ENE 17:53:14 10° SE
PSLV R/B 3.5 17:49:03 10° SSE 17:52:40 72° ENE 17:56:23 10° N
YAOGAN 1 2.4 17:50:13 10° SSE 17:54:29 68° ENE 17:58:48 10° N
BREEZE-M DEB (TANK) 4.4 17:51:25 10° WNW 17:55:25 24° SW 17:57:40 10° S
Cosmos 676 Rocket 4.0 17:51:15 10° SSW 17:56:34 89° WNW 18:01:52 10° NNE
Meteor 1-11 4.4 17:55:30 10° SSW 18:01:19 79° W 18:07:09 10° N
BREEZE M DEB (TANK) 3.7 17:59:45 10° WNW 18:03:48 38° SW 18:05:09 21° SSE
Lacrosse 5 rocket 1.9 18:01:17 10° NNW 18:04:27 32° NNE 18:04:27 32° NNE
IRIDIUM 106 4.2 18:00:19 10° N 18:05:32 66° E 18:10:42 10° SSE
CZ-4 R/B 1.4 18:01:53 10° SSE 18:05:55 55° ENE 18:09:54 10° N
NOAA 15 4.5 18:01:05 10° SSE 18:06:19 84° ENE 18:11:37 10° NNW
Cosmos 1844 Rocket 2.5 18:01:13 10° NNW 18:06:50 83° ENE 18:12:24 10° SSE
CZ-4B R/B 3.0 18:03:14 10° SSE 18:08:34 79° ENE 18:14:01 10° NNW
Meteor 2-12 Rocket 4.4 18:04:06 10° N 18:10:13 89° W 18:16:16 10° S
S3M 4.2 18:04:24 10° SSE 18:10:26 46° E 18:16:28 10° NNE
Nadezhda 2 Rocket 4.5 18:04:59 10° N 18:11:12 83° W 18:17:19 10° S
IGS 5A 4.2 18:15:33 34° NNE 18:15:33 34° NNE 18:18:19 10° N
MOS 1-B 4.3 18:10:01 10° SSE 18:15:48 86° WSW 18:21:40 10° NNW
Spot 1 3.8 18:17:39 51° NE 18:18:23 62° ESE 18:22:23 10° S
Cosmos 1844 3.7 18:13:48 10° NNW 18:19:38 89° NE 18:25:24 10° SSE
Cosmos 1633 3.0 18:17:53 10° SSW 18:21:10 54° W 18:23:16 20° N
RESURS DK-1 2.2 18:17:05 10° NNW 18:21:13 78° ENE 18:21:56 58° SE
ISS -1.7 18:20:10 10° W 18:23:02 26° SW 18:24:23 20° S
Atlas Centaur 2 4.4 18:17:49 10° SSW 18:24:04 24° SSE 18:27:06 19° SE
Cosmos 2360 Rocket 2.2 18:20:31 10° SSW 18:26:09 82° WNW 18:30:23 19° NNE
Cosmos 2219 Rocket 2.3 18:21:34 10° S 18:26:52 47° ESE 18:27:04 47° ESE
Cosmos 1892 Rocket 4.1 18:25:30 10° SSW 18:29:51 57° W 18:34:12 10° N
Cosmos 2333 Rocket 2.1 18:25:16 10° SSW 18:30:53 74° ESE 18:33:10 37° NE
Cosmos 2278 Rocket 3.9 18:31:07 10° N 18:33:33 19° NNE 18:33:33 19° NNE
Cosmos 2322 Rocket 3.1 18:32:26 10° SW 18:37:48 47° WNW 18:42:51 12° NNE
Feng Yun 1-1 Rocket 4.1 18:33:00 10° SSE 18:38:37 88° WSW 18:44:07 10° NNW
Cosmos 1825 4.2 18:36:06 10° SW 18:39:16 27° WNW 18:42:27 10° NNW
SL-4 R/B 3.6 18:41:19 10° NW 18:43:14 23° NNW 18:43:14 23° NNW
COSMOS 2428 4.2 18:40:52 10° S 18:42:56 22° SSE 18:42:56 22° SSE
SL-16 R/B 4.0 18:47:11 10° WSW 18:52:02 28° NW 18:56:54 10° N
BlueWalker 3 4.1 18:49:19 10° NW 18:51:11 20° NNW 18:51:11 20° NNW
Cosmos 2333 4.2 18:47:28 10° SSW 18:53:04 80° WNW 18:54:40 49° NNE
CSL-04 Debris 4.0 18:56:13 85° E 18:56:14 85° ENE 19:01:40 10° NNW
Cosmos 1745 Rocket 4.1 18:51:54 10° NNW 18:58:09 74° W 19:04:17 10° S
Okean O Rocket 2.7 18:54:33 10° S 18:58:44 44° W 19:02:58 10° NNW
USA 81 4.4 18:55:34 10° S 19:06:23 - N 18:59:33 53° S
CSL-04 Rocket 3.9 19:04:36 58° N 19:04:36 58° N 19:08:53 10° NNW
Cosmos 1850 Rocket 4.5 19:00:56 10° SW 19:06:01 57° WNW 19:07:01 49° NNW
Cosmos 44 Rocket 4.3 19:04:49 10° SW 19:07:45 39° SW 19:07:45 39° SW
Cosmos 2322 4.3 19:07:57 10° SSW 19:11:59 48° SSW 19:11:59 48° SSW
Cosmos 1709 Rocket 3.9 19:10:39 10° N 19:16:27 78° NW 19:16:27 78° NW
ATLAS 2AS CENTAUR R/B 4.4 19:12:39 10° NW 19:18:16 28° WSW 19:23:39 10° SSW
Lacrosse 5 3.4 19:22:46 10° W 19:26:44 30° NW 19:26:44 30° NW
CZ-4 R/B 4.5 19:39:02 10° WSW 19:41:06 13° W 19:43:10 10° WNW
BREEZE-M DEB (TANK) 4.1 19:39:56 10° WNW 19:44:07 69° SW 19:44:07 69° SW
Cosmos 2219 Rocket 4.2 20:06:11 10° WSW 20:08:53 23° W 20:08:53 23° W
Cosmos 2333 Rocket 4.4 20:11:30 10° W 20:15:17 21° NW 20:15:17 21° NW
